SCP
0 -0 0 0 -0 -0 0 0 -0 -0 -0 -0 -0 -0 -0 -0 -0 0 0 0 0 0 0 0 0 0 0 0 0 0 0 0 0 0 0 0 0 0 0 -0 -0 -0 -0 -0 -0 -0 -0 -0 -0
0 0 0 0 -0 0 0 -0 -0 -0 0 -0 -0 0 0 0 0 0 0 0 0 0 0 0 0 0 0 0 0 0 0 0 0 0 0 0 0 0 0 0 0 0 0 -0 0 0 0 0 0
0 0 0 -0 0 0 0 -0 0 -0 0 -0 0 0 0 0 0 0 0 0 0 0 0 0 0 0 0 0 0 0 0 0 0 0 0 0 0 0 0 0 0 0 0 0 0 0 0 0 0
0 0 0 0 0 0 0 0 0 0 -0 -0 -0 0 0 0 0 0 0 0 0 0 0 0 0 0 0 -0 -0 0 0 0 0 0 0 0 0 0 0 0 0 0 0 0 0 0 0 0 0
0 0 0 0 0 0 0 0 0 0 0 0 -0 0 0 0 0 0 0 0 0 0 0 0 -0 -0 -0 -0 -0 0 0 0 -0 -0 0 0 0 0 0 0 0 0 0 0 0 0 0 0 0
0 0 0 0 0 0 0 0 0 -0 0 0 0 0 0 0 0 0 0 0 0 0 0 0 0 -0 -0 0 -0 0 0 0 0 0 0 0 0 0 0 0 0 0 0 0 0 0 0 0 0
0 0 0 0 0 0 0 0 -0 0 0 0 0 0 0 0 0 0 0 0 0 0 0 0 0 0 0 0 0 0 0 0 0 0 0 0 0 0 0 0 0 0 0 0 0 0 0 0 0
0 0 0 0 0 0 0 0 0 0 0 0 0 0 0 0 0 0 0 0 0 0 0 0 0 0 0 0 0 0 0 0 0 0 0 0 0 0 0 0 0 0 0 0 0 0 0 0 0
0 0 0 0 0 0 0 0 0 0 0 0 0 0 0 0 0 0 0 0 0 0 0 0 0 0 0 0 0 0 0 0 0 0 0 0 0 0 0 0 0 0 0 0 0 0 0 0 0
0 0 0 0 0 0 0 0 0 0 0 0 0 0 0 0 0 0 0 0 0 0 0 0 0 0 0 0 0 0 0 0 0 0 0 0 0 0 0 0 0 0 0 0 0 0 0 0 0
0 0 0 0 0 0 0 0 0 0 0 0 0 0 0 0 0 0 0 0 0 0 0 0 0 0 0 0 0 0 0 0 0 0 0 0 0 0 0 0 0 0 0 0 0 0 0 0 0
0 0 0 0 0 0 0 0 0 0 0 0 0 0 0 0 0 0 0 0 0 0 0 0 0 0 0 0 0 0 0 0 0 0 0 0 0 0 0 0 0 0 0 0 0 0 0 0 0
0 0 0 0 0 0 0 0 0 0 0 0 0 0 0 0 0 0 0 0 0 0 0 0 0 0 0 0 0 0 0 0 0 0 0 0 0 0 0 0 0 0 0 0 0 0 0 0 0
0 0 0 0 0 0 0 0 0 0 0 0 0 0 0 0 0 0 0 0 0 0 0 0 0 0 0 0 0 0 0 0 0 0 0 0 0 0 0 0 0 0 0 0 0 0 0 0 0
0 0 0 0 0 0 0 0 0 0 0 0 0 0 0 0 0 0 0 0 0 0 0 0 0 0 0 0 0 0 0 0 0 0 0 0 0 0 0 0 0 0 0 0 0 0 0 0 0
0 0 0 0 0 0 0 0 0 0 0 0 0 0 0 0 0 0 0 0 0 0 0 0 0 0 0 0 0 0 0 0 0 0 0 0 -0 -0 -0 -0 -0 -0 -0 0 0 0 0 0 0
0 0 0 0 0 0 0 0 0 0 0 0 0 0 0 0 0 0 0 0 0 0 0 0 0 0 0 0 0 0 0 0 0 0 0 0 -0 -0 -0 -0 -0 -0 -0 -0 0 0 0 0 0
0 0 0 0 0 0 0 0 0 0 0 0 0 0 0 0 0 0 0 0 0 0 0 0 0 0 0 0 0 0 0 0 0 0 0 0 0 -0 -0 0 0 -0 -0 -0 0 0 0 0 0
0 0 0 0 0 0 0 0 0 0 0 0 0 0 0 0 0 0 0 0 0 0 0 0 0 0 0 0 0 0 0 0 0 0 0 0 0 0 0 0 0 0 -0 -0 0 0 0 0 0
0 0 0 0 0 0 0 0 0 0 0 0 0 0 0 0 0 0 0 0 0 0 0 0 0 0 0 0 0 0 0 0 0 0 0 0 0 0 0 0 0 -0 -0 -0 0 0 0 0 0
0 0 0 0 0 0 0 0 0 0 0 0 0 0 0 0 0 0 0 0 0 0 0 0 0 0 0 0 0 0 0 0 0 0 0 0 0 0 0 0 0 0 0 0 0 0 0 0 0
0 0 0 0 0 0 0 0 0 0 0 0 0 0 0 0 0 0 0 0 0 0 0 0 0 0 0 0 0 0 0 0 0 0 0 0 0 0 0 0 0 0 0 0 0 0 0 0 0
0 0 0 0 0 0 0 0 0 0 0 0 0 0 0 0 0 0 0 0 0 0 0 0 0 0 0 0 0 0 0 0 0 0 0 0 0 0 0 0 0 0 0 0 0 0 0 0 0
0 0 0 0 0 0 0 0 0 0 0 0 0 0 0 0 0 0 0 0 0 0 0 0 0 0 0 0 0 0 0 0 0 0 0 0 0 0 0 0 0 0 0 0 0 0 0 0 0
0 0 0 0 0 0 0 0 0 0 0 0 0 0 0 0 0 0 0 0 0 0 0 0 0 0 0 0 0 0 0 0 0 0 0 0 0 0 0 0 0 0 0 0 0 0 0 0 0
0 0 0 0 0 0 0 0 0 0 0 0 0 0 0 0 0 0 0 0 0 0 0 0 0 0 0 0 0 0 0 0 0 0 0 0 0 0 0 0 0 0 0 0 0 0 0 0 0
0 0 0 0 0 0 0 0 0 0 0 0 0 0 0 0 0 0 0 0 0 0 0 0 0 0 0 0 0 0 0 0 0 0 0 0 0 0 0 0 0 0 0 0 0 0 0 0 0
0 0 0 0 0 0 0 0 0 0 0 0 0 0 0 0 0 0 0 0 0 0 0 0 0 0 0 0 0 0 0 0 0 0 0 0 0 0 0 0 0 0 0 0 0 0 0 0 0
0 0 0 0 0 0 0 0 0 0 0 0 0 0 0 0 0 0 0 0 0 0 0 0 0 0 0 0 0 0 0 0 0 0 0 0 0 0 0 0 0 0 0 0 0 0 0 0 0
0 0 0 0 0 0 0 0 0 0 0 0 0 0 0 0 0 0 0 0 0 0 0 0 0 0 0 0 0 0 0 0 0 0 0 0 0 0 0 0 0 0 0 0 0 0 0 0 0
Wind_Speed_500mb
3 3 7 1 4 2 7 7 1 10 7 2 3 3 11 10 8 8 6 15 14 19 15 13 12 11 6 9 13 14 15 16 15 12 11 7 3 7 6 4 4 7 10 12 11 10 9 9 11
4 9 7 5 5 3 9 7 11 5 14 21 17 12 8 11 17 19 15 18 21 19 16 12 15 11 9 10 12 11 13 15 17 16 14 13 12 11 9 7 5 1 4 7 9 10 9 7 9
2 10 5 4 3 2 9 9 15 24 15 7 6 6 8 15 11 12 19 23 24 20 16 14 14 7 7 10 10 9 11 12 14 15 15 15 14 14 13 11 9 5 2 2 3 4 6 6 5
5 4 4 9 7 7 8 17 26 20 5 8 5 10 10 10 15 18 25 26 23 19 17 15 14 10 9 10 8 9 8 9 10 12 13 13 13 13 13 13 13 11 6 2 4 5 6 5 6
8 7 7 7 9 11 10 23 27 12 7 11 7 12 14 15 22 25 26 25 22 20 17 12 14 14 16 16 14 16 13 11 12 13 11 10 11 12 11 12 12 12 10 8 5 6 8 11 11
9 6 10 12 11 11 14 25 21 12 7 10 8 16 13 20 26 28 25 23 20 19 18 12 15 13 11 13 13 10 15 15 14 14 14 12 9 9 9 8 9 10 11 9 8 9 8 9 14
9 9 8 8 16 14 15 27 19 15 13 11 7 14 10 23 26 29 25 22 20 18 16 13 10 9 8 7 6 6 6 5 7 9 11 10 8 5 6 8 8 7 10 11 12 11 11 11 11
6 6 11 11 20 14 17 27 8 15 11 10 12 8 11 27 32 31 26 22 19 17 15 11 11 10 8 5 3 1 2 2 3 5 11 9 8 7 6 9 11 11 12 14 15 14 16 16 16
9 9 14 16 19 13 25 19 9 6 9 14 14 8 12 30 36 33 30 27 21 18 16 13 13 12 11 9 8 5 7 3 6 14 13 9 9 9 11 14 14 20 17 20 25 22 20 20 22
12 12 14 8 16 15 30 23 23 13 17 17 15 15 20 35 36 37 33 26 24 20 17 13 12 11 12 17 9 10 10 11 13 12 8 6 6 8 10 14 18 17 21 22 25 26 26 25 25
9 12 10 13 17 20 29 20 18 14 15 21 23 25 30 33 34 34 32 26 25 22 20 17 16 16 16 17 13 10 7 5 3 3 4 4 7 9 10 13 16 20 22 24 25 27 30 29 29
13 4 7 16 16 18 24 23 14 24 4 7 14 27 34 36 34 33 32 29 24 21 18 20 23 22 18 13 10 7 5 6 5 6 8 9 10 12 14 16 18 20 22 24 26 27 29 30 30
16 15 10 15 16 14 22 13 5 18 14 15 18 30 34 34 32 30 27 25 23 24 25 22 20 16 13 11 10 10 8 7 9 11 14 16 17 19 20 22 24 26 28 29 30 32 33 33 34
3 14 17 13 15 12 11 8 5 9 14 18 27 31 33 35 35 31 28 27 24 23 23 22 20 18 15 14 12 9 10 13 15 17 20 22 23 25 26 26 28 29 30 30 30 29 32 30 31
18 5 8 11 12 8 8 10 14 11 19 24 29 30 33 33 33 31 30 28 26 23 23 23 22 20 17 13 10 11 13 15 16 19 22 24 27 29 31 33 34 36 36 36 35 34 35 32 33
8 6 9 6 12 4 7 22 8 14 23 26 30 32 35 35 34 31 30 28 27 23 24 23 22 21 17 14 14 13 12 12 13 16 20 24 28 31 33 36 39 41 41 41 41 41 41 38 35
6 22 30 11 11 6 14 17 8 12 21 25 31 35 37 37 36 34 31 30 27 26 25 24 24 21 18 17 15 11 6 6 8 12 17 21 26 30 32 37 42 48 48 45 45 43 43 44 41
10 13 13 15 8 13 12 26 12 12 22 28 32 36 39 41 43 38 36 32 30 28 26 26 26 23 20 16 12 7 2 3 5 8 13 19 23 28 32 38 44 49 50 47 49 47 45 43 39
9 10 12 2 3 6 14 23 22 14 23 28 33 37 41 43 39 40 39 37 35 32 30 30 29 26 21 16 12 9 8 7 9 11 14 19 24 29 34 38 43 47 52 56 54 50 49 45 39
9 10 16 4 2 7 11 28 24 8 7 14 26 37 41 39 41 43 43 42 39 36 33 31 29 28 23 19 16 13 12 13 15 18 21 25 27 31 35 41 47 49 53 57 55 52 49 43 34
12 14 15 9 4 4 13 22 4 5 6 11 10 18 32 42 45 46 48 46 42 39 37 33 30 29 28 24 23 20 21 23 23 24 26 29 31 35 41 47 51 54 57 59 58 48 45 40 40
18 4 5 5 2 12 6 12 6 3 3 11 18 10 16 33 43 44 45 45 44 40 34 34 32 31 33 31 29 29 24 22 21 30 34 35 37 40 48 54 57 59 60 54 46 40 40 40 43
8 8 8 4 5 7 9 10 6 1 1 19 24 19 4 16 37 41 41 37 34 35 38 37 37 37 36 36 37 37 38 33 36 39 39 35 36 45 54 58 59 60 55 50 48 47 44 43 45
26 12 8 5 4 10 5 7 8 5 15 20 23 20 14 7 21 29 26 27 29 36 38 40 40 39 40 42 44 44 44 38 34 28 33 34 45 54 60 60 62 61 56 52 52 52 49 49 50
6 9 7 10 8 4 5 7 8 8 15 16 14 17 21 18 13 17 22 27 31 37 39 41 43 42 41 43 45 45 44 42 41 39 41 49 53 56 59 65 64 59 56 58 59 56 53 52 53
11 7 10 10 7 3 5 9 8 10 14 15 16 18 21 22 18 13 10 17 22 28 34 37 39 39 40 41 41 41 41 40 40 44 49 54 55 55 63 65 61 59 56 56 54 53 54 53 53
11 11 6 1 1 7 4 6 10 14 15 18 20 21 23 21 19 17 12 7 2 5 14 22 27 32 34 32 33 34 34 37 41 48 53 58 57 58 57 61 61 62 62 60 59 55 55 52 52
4 10 6 6 7 8 8 7 4 20 13 13 18 23 23 22 22 22 21 18 13 8 5 9 14 21 25 27 27 29 33 39 46 52 55 58 59 57 61 64 63 62 58 54 52 51 49 50 51
7 7 1 4 6 7 8 6 7 15 11 11 14 17 17 18 19 19 17 16 16 16 17 20 22 23 24 26 29 33 38 45 49 51 51 50 54 57 60 61 60 58 57 53 51 51 52 52 53
3 3 11 8 8 2 5 4 7 12 10 9 13 12 12 14 15 14 15 17 19 23 28 27 27 26 28 32 35 38 44 48 48 47 48 53 54 56 58 59 59 58 54 51 51 51 49 52 54
Wind_Direction_500mb
350 113 142 21 213 147 102 102 98 134 145 88 119 308 62 31 8 50 138 144 147 145 142 135 135 121 48 72 83 81 71 70 74 84 83 95 103 34 78 65 76 80 77 67 61 63 71 70 47
317 154 133 256 257 215 104 142 164 94 118 117 103 102 103 83 89 103 119 145 138 140 137 138 134 123 84 78 86 85 77 75 73 74 75 73 65 56 62 64 58 225 61 75 66 50 50 45 39
265 181 174 221 213 56 130 151 134 127 137 176 127 75 103 117 119 112 133 136 134 134 135 145 140 121 78 75 78 83 82 78 75 71 69 67 64 64 63 60 55 68 73 33 30 32 29 29 11
200 189 190 241 141 123 119 145 147 151 128 170 164 125 114 129 128 137 138 134 131 132 127 131 116 104 84 76 80 85 75 74 75 67 64 64 62 61 63 64 60 59 54 10 302 294 293 317 324
199 222 190 171 139 142 153 155 166 173 147 165 180 140 136 146 147 144 146 143 139 136 136 124 117 108 91 82 84 78 68 83 81 72 66 63 59 54 59 64 54 45 41 36 10 323 292 282 286
228 244 213 199 162 156 165 172 173 200 169 167 204 157 143 170 155 157 154 149 146 145 138 134 128 125 109 97 90 91 82 84 78 60 53 54 60 60 53 36 32 33 29 22 9 353 337 304 286
257 232 226 189 166 173 174 172 198 192 178 181 169 173 143 162 164 161 158 158 152 154 147 142 148 141 127 128 127 129 127 75 46 34 33 33 25 36 46 24 24 27 20 8 -0 355 347 337 316
208 241 179 189 185 182 157 171 193 198 174 158 176 189 177 181 171 166 164 164 163 162 160 165 154 147 148 141 127 162 257 294 342 25 6 358 356 323 311 302 322 332 326 337 341 342 355 350 338
178 222 209 186 179 167 163 178 164 188 169 180 191 187 172 175 180 172 174 184 173 177 174 175 166 161 183 208 213 258 253 288 312 319 316 306 315 301 296 300 311 318 318 316 315 310 322 328 329
217 232 214 179 172 168 173 191 173 178 183 205 206 208 183 181 178 183 186 185 183 182 185 183 180 180 203 230 250 285 295 282 292 300 298 298 293 285 291 289 292 299 304 304 295 302 298 302 300
191 238 155 163 160 157 163 178 173 194 210 223 219 195 178 176 181 190 195 192 186 183 194 183 204 203 210 221 234 258 255 273 311 359 6 352 338 335 317 306 300 298 299 297 297 297 297 295 294
209 161 166 154 158 153 166 155 188 208 238 187 212 190 180 180 182 185 184 178 170 194 196 209 204 203 213 219 217 193 148 115 80 46 29 20 10 4 352 341 333 327 321 319 314 311 308 304 299
234 153 132 144 145 145 145 163 199 223 218 223 186 180 183 182 182 182 182 174 168 182 194 200 200 196 199 194 171 148 131 100 72 56 49 41 31 23 13 5 356 348 343 337 332 327 322 317 310
330 145 133 151 146 150 180 166 198 197 197 175 177 183 186 187 186 181 180 178 170 179 187 190 185 182 169 162 156 146 114 91 74 62 51 41 34 28 22 15 6 356 349 343 338 334 328 324 318
133 149 143 167 171 148 175 208 226 185 178 182 186 189 190 191 190 192 186 178 172 170 188 183 178 163 154 167 164 135 107 85 69 58 48 38 31 25 19 14 7 359 351 346 341 336 331 325 320
127 249 237 156 188 134 207 272 143 172 183 194 195 195 197 197 198 193 186 178 173 180 175 180 173 170 173 172 157 137 110 84 62 49 39 30 25 21 17 12 5 360 353 346 342 337 332 326 321
219 220 238 209 208 153 218 278 149 176 202 210 208 205 203 201 198 196 188 184 181 174 176 185 179 177 174 169 160 144 112 58 33 29 26 21 17 13 10 5 2 358 353 346 341 335 331 326 320
172 217 233 244 158 214 221 258 225 215 219 227 222 215 209 206 203 196 189 185 184 182 179 182 184 182 180 177 177 184 219 317 338 353 0 359 356 355 354 352 350 350 348 341 335 329 326 321 316
194 210 247 36 62 264 261 276 281 268 240 244 234 223 217 212 203 196 192 191 191 193 187 187 191 190 192 192 196 207 225 266 299 308 320 330 331 335 336 337 339 339 339 337 332 326 322 319 315
181 211 236 177 120 266 289 289 301 333 302 280 258 238 226 213 201 196 196 196 198 199 196 196 198 203 206 207 211 217 227 255 272 295 300 307 312 318 323 327 329 330 329 329 324 319 315 311 310
217 229 241 274 166 207 304 275 186 100 59 13 315 258 234 218 206 199 198 201 202 203 203 204 206 214 220 226 234 246 261 271 279 285 288 295 302 309 315 318 321 321 321 319 316 311 306 302 300
210 173 168 138 258 283 354 290 234 342 104 34 10 343 238 216 209 203 199 202 207 207 209 213 216 221 232 238 247 253 253 258 262 277 284 290 296 305 310 314 315 315 315 310 305 302 297 293 290
93 114 115 132 228 286 186 251 114 340 270 9 6 6 331 208 201 199 201 207 208 211 218 223 228 234 242 249 253 258 262 267 274 283 287 290 296 302 308 310 312 311 308 302 298 296 294 288 284
136 118 102 127 219 245 114 250 138 27 344 338 8 23 41 130 179 194 200 207 212 222 226 232 238 244 248 255 260 261 262 268 278 283 289 292 299 304 307 307 308 306 303 300 298 296 290 286 281
184 194 235 218 202 318 100 227 15 25 5 348 6 52 60 80 120 176 203 220 227 235 237 243 247 252 257 259 258 260 265 274 281 284 291 297 301 302 304 305 305 303 301 299 298 293 288 285 280
188 261 270 274 250 94 149 235 110 59 63 60 71 75 75 75 81 100 180 223 240 246 249 254 256 258 258 259 260 265 272 277 284 292 296 300 301 301 304 305 305 303 299 296 292 288 286 283 279
141 214 19 221 34 260 177 166 144 131 91 79 81 80 71 71 74 78 87 101 129 238 248 254 256 257 263 263 265 269 279 287 293 298 302 304 303 303 302 303 303 301 299 296 292 287 285 282 279
304 113 185 202 249 252 179 246 127 169 123 100 83 81 79 79 78 74 74 75 69 52 354 303 284 275 271 270 274 280 287 295 301 303 304 303 304 304 304 303 301 300 297 293 289 286 284 281 279
153 194 118 325 296 291 295 117 46 155 142 126 106 94 85 80 75 68 58 42 21 358 336 317 305 294 285 281 282 290 296 302 305 306 306 305 304 304 302 301 299 298 296 293 289 286 285 282 281
312 247 232 254 161 247 320 275 144 140 138 142 129 119 95 81 68 52 30 15 -0 343 331 318 304 290 283 285 292 299 304 308 309 307 305 305 303 303 301 299 298 297 294 292 290 288 287 285 282
Wind_Speed_850mb
3 3 7 1 4 2 7 7 1 10 7 2 3 3 11 10 8 8 6 15 14 19 15 13 12 11 6 9 13 14 15 16 15 12 11 7 3 7 6 4 4 7 10 12 11 10 9 9 11
4 9 7 5 5 3 9 7 11 5 14 21 17 12 8 11 17 19 15 18 21 19 16 12 15 11 9 10 12 11 13 15 17 16 14 13 12 11 9 7 5 1 4 7 9 10 9 7 9
2 10 5 4 3 2 9 9 15 24 15 7 6 6 8 15 11 12 19 23 24 20 16 14 14 7 7 10 10 9 11 12 14 15 15 15 14 14 13 11 9 5 2 2 3 4 6 6 5
5 4 4 9 7 7 8 17 26 20 5 8 5 10 10 10 15 18 25 26 23 19 17 15 14 10 9 10 8 9 8 9 10 12 13 13 13 13 13 13 13 11 6 2 4 5 6 5 6
8 7 7 7 9 11 10 23 27 12 7 11 7 12 14 15 22 25 26 25 22 20 17 12 14 14 16 16 14 16 13 11 12 13 11 10 11 12 11 12 12 12 10 8 5 6 8 11 11
9 6 10 12 11 11 14 25 21 12 7 10 8 16 13 20 26 28 25 23 20 19 18 12 15 13 11 13 13 10 15 15 14 14 14 12 9 9 9 8 9 10 11 9 8 9 8 9 14
9 9 8 8 16 14 15 27 19 15 13 11 7 14 10 23 26 29 25 22 20 18 16 13 10 9 8 7 6 6 6 5 7 9 11 10 8 5 6 8 8 7 10 11 12 11 11 11 11
6 6 11 11 20 14 17 27 8 15 11 10 12 8 11 27 32 31 26 22 19 17 15 11 11 10 8 5 3 1 2 2 3 5 11 9 8 7 6 9 11 11 12 14 15 14 16 16 16
9 9 14 16 19 13 25 19 9 6 9 14 14 8 12 30 36 33 30 27 21 18 16 13 13 12 11 9 8 5 7 3 6 14 13 9 9 9 11 14 14 20 17 20 25 22 20 20 22
12 12 14 8 16 15 30 23 23 13 17 17 15 15 20 35 36 37 33 26 24 20 17 13 12 11 12 17 9 10 10 11 13 12 8 6 6 8 10 14 18 17 21 22 25 26 26 25 25
9 12 10 13 17 20 29 20 18 14 15 21 23 25 30 33 34 34 32 26 25 22 20 17 16 16 16 17 13 10 7 5 3 3 4 4 7 9 10 13 16 20 22 24 25 27 30 29 29
13 4 7 16 16 18 24 23 14 24 4 7 14 27 34 36 34 33 32 29 24 21 18 20 23 22 18 13 10 7 5 6 5 6 8 9 10 12 14 16 18 20 22 24 26 27 29 30 30
16 15 10 15 16 14 22 13 5 18 14 15 18 30 34 34 32 30 27 25 23 24 25 22 20 16 13 11 10 10 8 7 9 11 14 16 17 19 20 22 24 26 28 29 30 32 33 33 34
3 14 17 13 15 12 11 8 5 9 14 18 27 31 33 35 35 31 28 27 24 23 23 22 20 18 15 14 12 9 10 13 15 17 20 22 23 25 26 26 28 29 30 30 30 29 32 30 31
18 5 8 11 12 8 8 10 14 11 19 24 29 30 33 33 33 31 30 28 26 23 23 23 22 20 17 13 10 11 13 15 16 19 22 24 27 29 31 33 34 36 36 36 35 34 35 32 33
8 6 9 6 12 4 7 22 8 14 23 26 30 32 35 35 34 31 30 28 27 23 24 23 22 21 17 14 14 13 12 12 13 16 20 24 28 31 33 36 39 41 41 41 41 41 41 38 35
6 22 30 11 11 6 14 17 8 12 21 25 31 35 37 37 36 34 31 30 27 26 25 24 24 21 18 17 15 11 6 6 8 12 17 21 26 30 32 37 42 48 48 45 45 43 43 44 41
10 13 13 15 8 13 12 26 12 12 22 28 32 36 39 41 43 38 36 32 30 28 26 26 26 23 20 16 12 7 2 3 5 8 13 19 23 28 32 38 44 49 50 47 49 47 45 43 39
9 10 12 2 3 6 14 23 22 14 23 28 33 37 41 43 39 40 39 37 35 32 30 30 29 26 21 16 12 9 8 7 9 11 14 19 24 29 34 38 43 47 52 56 54 50 49 45 39
9 10 16 4 2 7 11 28 24 8 7 14 26 37 41 39 41 43 43 42 39 36 33 31 29 28 23 19 16 13 12 13 15 18 21 25 27 31 35 41 47 49 53 57 55 52 49 43 34
12 14 15 9 4 4 13 22 4 5 6 11 10 18 32 42 45 46 48 46 42 39 37 33 30 29 28 24 23 20 21 23 23 24 26 29 31 35 41 47 51 54 57 59 58 48 45 40 40
18 4 5 5 2 12 6 12 6 3 3 11 18 10 16 33 43 44 45 45 44 40 34 34 32 31 33 31 29 29 24 22 21 30 34 35 37 40 48 54 57 59 60 54 46 40 40 40 43
8 8 8 4 5 7 9 10 6 1 1 19 24 19 4 16 37 41 41 37 34 35 38 37 37 37 36 36 37 37 38 33 36 39 39 35 36 45 54 58 59 60 55 50 48 47 44 43 45
26 12 8 5 4 10 5 7 8 5 15 20 23 20 14 7 21 29 26 27 29 36 38 40 40 39 40 42 44 44 44 38 34 28 33 34 45 54 60 60 62 61 56 52 52 52 49 49 50
6 9 7 10 8 4 5 7 8 8 15 16 14 17 21 18 13 17 22 27 31 37 39 41 43 42 41 43 45 45 44 42 41 39 41 49 53 56 59 65 64 59 56 58 59 56 53 52 53
11 7 10 10 7 3 5 9 8 10 14 15 16 18 21 22 18 13 10 17 22 28 34 37 39 39 40 41 41 41 41 40 40 44 49 54 55 55 63 65 61 59 56 56 54 53 54 53 53
11 11 6 1 1 7 4 6 10 14 15 18 20 21 23 21 19 17 12 7 2 5 14 22 27 32 34 32 33 34 34 37 41 48 53 58 57 58 57 61 61 62 62 60 59 55 55 52 52
4 10 6 6 7 8 8 7 4 20 13 13 18 23 23 22 22 22 21 18 13 8 5 9 14 21 25 27 27 29 33 39 46 52 55 58 59 57 61 64 63 62 58 54 52 51 49 50 51
7 7 1 4 6 7 8 6 7 15 11 11 14 17 17 18 19 19 17 16 16 16 17 20 22 23 24 26 29 33 38 45 49 51 51 50 54 57 60 61 60 58 57 53 51 51 52 52 53
3 3 11 8 8 2 5 4 7 12 10 9 13 12 12 14 15 14 15 17 19 23 28 27 27 26 28 32 35 38 44 48 48 47 48 53 54 56 58 59 59 58 54 51 51 51 49 52 54
Wind_Direction_850mb
350 113 142 21 213 147 102 102 98 134 145 88 119 308 62 31 8 50 138 144 147 145 142 135 135 121 48 72 83 81 71 70 74 84 83 95 103 34 78 65 76 80 77 67 61 63 71 70 47
317 154 133 256 257 215 104 142 164 94 118 117 103 102 103 83 89 103 119 145 138 140 137 138 134 123 84 78 86 85 77 75 73 74 75 73 65 56 62 64 58 225 61 75 66 50 50 45 39
265 181 174 221 213 56 130 151 134 127 137 176 127 75 103 117 119 112 133 136 134 134 135 145 140 121 78 75 78 83 82 78 75 71 69 67 64 64 63 60 55 68 73 33 30 32 29 29 11
200 189 190 241 141 123 119 145 147 151 128 170 164 125 114 129 128 137 138 134 131 132 127 131 116 104 84 76 80 85 75 74 75 67 64 64 62 61 63 64 60 59 54 10 302 294 293 317 324
199 222 190 171 139 142 153 155 166 173 147 165 180 140 136 146 147 144 146 143 139 136 136 124 117 108 91 82 84 78 68 83 81 72 66 63 59 54 59 64 54 45 41 36 10 323 292 282 286
228 244 213 199 162 156 165 172 173 200 169 167 204 157 143 170 155 157 154 149 146 145 138 134 128 125 109 97 90 91 82 84 78 60 53 54 60 60 53 36 32 33 29 22 9 353 337 304 286
257 232 226 189 166 173 174 172 198 192 178 181 169 173 143 162 164 161 158 158 152 154 147 142 148 141 127 128 127 129 127 75 46 34 33 33 25 36 46 24 24 27 20 8 -0 355 347 337 316
208 241 179 189 185 182 157 171 193 198 174 158 176 189 177 181 171 166 164 164 163 162 160 165 154 147 148 141 127 162 257 294 342 25 6 358 356 323 311 302 322 332 326 337 341 342 355 350 338
178 222 209 186 179 167 163 178 164 188 169 180 191 187 172 175 180 172 174 184 173 177 174 175 166 161 183 208 213 258 253 288 312 319 316 306 315 301 296 300 311 318 318 316 315 310 322 328 329
217 232 214 179 172 168 173 191 173 178 183 205 206 208 183 181 178 183 186 185 183 182 185 183 180 180 203 230 250 285 295 282 292 300 298 298 293 285 291 289 292 299 304 304 295 302 298 302 300
191 238 155 163 160 157 163 178 173 194 210 223 219 195 178 176 181 190 195 192 186 183 194 183 204 203 210 221 234 258 255 273 311 359 6 352 338 335 317 306 300 298 299 297 297 297 297 295 294
209 161 166 154 158 153 166 155 188 208 238 187 212 190 180 180 182 185 184 178 170 194 196 209 204 203 213 219 217 193 148 115 80 46 29 20 10 4 352 341 333 327 321 319 314 311 308 304 299
234 153 132 144 145 145 145 163 199 223 218 223 186 180 183 182 182 182 182 174 168 182 194 200 200 196 199 194 171 148 131 100 72 56 49 41 31 23 13 5 356 348 343 337 332 327 322 317 310
330 145 133 151 146 150 180 166 198 197 197 175 177 183 186 187 186 181 180 178 170 179 187 190 185 182 169 162 156 146 114 91 74 62 51 41 34 28 22 15 6 356 349 343 338 334 328 324 318
133 149 143 167 171 148 175 208 226 185 178 182 186 189 190 191 190 192 186 178 172 170 188 183 178 163 154 167 164 135 107 85 69 58 48 38 31 25 19 14 7 359 351 346 341 336 331 325 320
127 249 237 156 188 134 207 272 143 172 183 194 195 195 197 197 198 193 186 178 173 180 175 180 173 170 173 172 157 137 110 84 62 49 39 30 25 21 17 12 5 360 353 346 342 337 332 326 321
219 220 238 209 208 153 218 278 149 176 202 210 208 205 203 201 198 196 188 184 181 174 176 185 179 177 174 169 160 144 112 58 33 29 26 21 17 13 10 5 2 358 353 346 341 335 331 326 320
172 217 233 244 158 214 221 258 225 215 219 227 222 215 209 206 203 196 189 185 184 182 179 182 184 182 180 177 177 184 219 317 338 353 0 359 356 355 354 352 350 350 348 341 335 329 326 321 316
194 210 247 36 62 264 261 276 281 268 240 244 234 223 217 212 203 196 192 191 191 193 187 187 191 190 192 192 196 207 225 266 299 308 320 330 331 335 336 337 339 339 339 337 332 326 322 319 315
181 211 236 177 120 266 289 289 301 333 302 280 258 238 226 213 201 196 196 196 198 199 196 196 198 203 206 207 211 217 227 255 272 295 300 307 312 318 323 327 329 330 329 329 324 319 315 311 310
217 229 241 274 166 207 304 275 186 100 59 13 315 258 234 218 206 199 198 201 202 203 203 204 206 214 220 226 234 246 261 271 279 285 288 295 302 309 315 318 321 321 321 319 316 311 306 302 300
210 173 168 138 258 283 354 290 234 342 104 34 10 343 238 216 209 203 199 202 207 207 209 213 216 221 232 238 247 253 253 258 262 277 284 290 296 305 310 314 315 315 315 310 305 302 297 293 290
93 114 115 132 228 286 186 251 114 340 270 9 6 6 331 208 201 199 201 207 208 211 218 223 228 234 242 249 253 258 262 267 274 283 287 290 296 302 308 310 312 311 308 302 298 296 294 288 284
136 118 102 127 219 245 114 250 138 27 344 338 8 23 41 130 179 194 200 207 212 222 226 232 238 244 248 255 260 261 262 268 278 283 289 292 299 304 307 307 308 306 303 300 298 296 290 286 281
184 194 235 218 202 318 100 227 15 25 5 348 6 52 60 80 120 176 203 220 227 235 237 243 247 252 257 259 258 260 265 274 281 284 291 297 301 302 304 305 305 303 301 299 298 293 288 285 280
188 261 270 274 250 94 149 235 110 59 63 60 71 75 75 75 81 100 180 223 240 246 249 254 256 258 258 259 260 265 272 277 284 292 296 300 301 301 304 305 305 303 299 296 292 288 286 283 279
141 214 19 221 34 260 177 166 144 131 91 79 81 80 71 71 74 78 87 101 129 238 248 254 256 257 263 263 265 269 279 287 293 298 302 304 303 303 302 303 303 301 299 296 292 287 285 282 279
304 113 185 202 249 252 179 246 127 169 123 100 83 81 79 79 78 74 74 75 69 52 354 303 284 275 271 270 274 280 287 295 301 303 304 303 304 304 304 303 301 300 297 293 289 286 284 281 279
153 194 118 325 296 291 295 117 46 155 142 126 106 94 85 80 75 68 58 42 21 358 336 317 305 294 285 281 282 290 296 302 305 306 306 305 304 304 302 301 299 298 296 293 289 286 285 282 281
312 247 232 254 161 247 320 275 144 140 138 142 129 119 95 81 68 52 30 15 -0 343 331 318 304 290 283 285 292 299 304 308 309 307 305 305 303 303 301 299 298 297 294 292 290 288 287 285 282